LMRST-SAT

Last updated on Sun Jun 21 2026 00:03:50 GMT+0000 (Coordinated Universal Time)

1 40971U 15058H 26171.39411390 .00001512 00000+0 14608-3 0 9997 2 40971 64.7750 265.3615 0132237 57.3809 303.9985 14.90600585114034
UTC large
Height (km)
Speed (km/s)
/
Latitude / Longitude
Inclination (degrees)
Orbital Period (minutes)
Azimuth
Elevation
Range (km)
Doppler Factor

Next 0 passes for location: London (51.5072 / 0.1276)

No passes found over London.
LMRST-SAT